Home   Weather   Broken Hill   Past weeks

Flag for Australia Past Weather in Broken Hill, New South Wales, Australia — Yesterday and Last 2 Weeks

Now
63 °F

Mild.


Feels Like: 63 °F
Forecast: 67 / 76 °F
Wind: 9 mph from South

Location: Yunta

Current Time: Jan 25, 2017 at 9:59:03 am

Latest Report: Jan 25, 2017 at 9:00 am


Visibility: N/A

Pressure: 30.08 "Hg

Humidity: 54%

Dew Point: 46 °F

Location of Broken HillLocation

Past Weather in Broken Hill — Graph

°F

Broken Hill Temperature Yesterday

Maximum temperature yesterday: 81 °F (at 6:30 pm)
Minimum temperature yesterday: 65 °F (at 9:30 am)
Average temperature yesterday: 74 °F

High & Low Weather Summary for the Past Weeks

 TemperatureHumidityPressure
High106 °F (Jan 17, 3:30 pm)91% (Jan 19, 11:30 pm)30.06 "Hg (Jan 19, 11:30 pm)
Low53 °F (Jan 21, 6:30 am)6% (Jan 17, 12:30 pm)29.44 "Hg (Jan 13, 3:30 am)
Average77 °F45%29.79 "Hg
* Reported Jan 10 6:30 am — Jan 25 6:30 am, Broken Hill, Weather by CustomWeather, © 2017

Note: Actual official high and low records may vary slightly from our data, if they occured in-between our weather recording intervals... More about our weather records

Advertising

Broken Hill Weather History for the Previous 24 Hours

Scroll right to see more
 ConditionsComfort  
Time TempWeatherWind HumidityBarometerVisibility
6:30 am
Wed, Jan 25
58 °FCool.6 mph66%30.06 "HgN/A
6:00 am58 °FCool.5 mph64%30.05 "HgN/A
3:30 am62 °FRefreshingly cool.10 mph52%30.03 "HgN/A
3:00 am62 °FRefreshingly cool.13 mph50%30.03 "HgN/A
12:30 am68 °FMild.10 mph45%30.05 "HgN/A
12:00 am68 °FMild.14 mph46%30.04 "HgN/A
9:30 pm
Tue, Jan 24
74 °FMild.13 mph39%29.99 "HgN/A
9:00 pm76 °FMild.12 mph36%29.99 "HgN/A
6:30 pm81 °FPleasantly warm.9 mph33%29.94 "HgN/A
6:00 pm80 °FPleasantly warm.10 mph34%29.93 "HgN/A
3:30 pm80 °FPleasantly warm.12 mph39%29.94 "HgN/A
3:00 pm80 °FWarm.12 mph43%29.94 "HgN/A
12:30 pm76 °FMild.13 mph49%29.95 "HgN/A
12:00 pm75 °FMild.12 mph52%29.95 "HgN/A
9:30 am65 °FMild.14 mph80%29.95 "HgN/A
9:00 am67 °FMild.14 mph75%29.93 "HgN/A
Weather by CustomWeather, © 2017

See weather overviewHow to use our weather pages